Weather in Shevchenkove

Ukraine / Sumi District     51°41′06″N   33°40′44″E
temp.,
°C
wind,
m/s
gust,
m/s
humid.,
%
clouds,
%
prec.,
mm/h
press.,
hPa
HPBL,
m
27 october, wed
wed2700:00+2ssw514699 0.0 1026285
03:00+2ssw5147345 0.0 1025287
06:00+2ssw513795 0.0 1024293
09:00+3sw614811 0.0 1023420
12:00+8sw710681 0.0 1022679
15:00+9wsw685996 0.0 1021767
18:00+7w3871100 0.0 1022268
21:00+5w35835 0.0 102374
28 october, thu
thu2800:00+4wsw349498 0.0 102367
03:00+4sw41094100 0.0 1022210
06:00+6sw51388100 0.2 1020332
09:00+6wsw61388100 1.1 1019442
12:00+7w51192100 0.9 1020454
15:00+8w51193100 1.9 1020429
18:00+8wnw4119395 0.0 1021405
21:00+7wnw49962 0.0 1022180
29 october, fri
fri2900:00+6nnw389710 0.0 1024166
03:00+4nne33925 0.0 102646
06:00+4nne33905 0.0 102742
09:00+4ne23865 0.0 1029101
12:00+9e22710 0.0 1029417
15:00+10se11653 0.0 1029620
18:00+7ese11822 0.0 103010
21:00+6se22870 0.0 103122
30 october, sat
sat3000:00+5sse33890 0.0 103141
03:00+4sse34915 0.0 103257
06:00+4sse35925 0.0 103271
09:00+4sse36905 0.0 1033152
12:00+10s45705 0.0 1032429
15:00+11s46625 0.0 1031641
18:00+7sse34805 0.0 103151
21:00+6s35840 0.0 103280
31 october, sun
sun3100:00+5s35851 0.0 103274
03:00+4s34841 0.0 103258
05:00+4sse34861 0.0 103162
08:00+5sse36800 0.0 1031120
11:00+10sse46610 0.0 1030407
14:00+11sse46580 0.0 1028678
17:00+7se35760 0.0 102773
20:00+6se48790 0.0 1027141